FENGYUN 1C DEB

Satellite information

Favourite Embed

Satellite Type and Status

DEBRISIN ORBIT

Key statistics

Satellite FENGYUN 1C DEB at a glance.

Uptime

9715

Days in orbit

Revolutions

≈ 14.3

Per day

Orbit

SSO

Sun Synchronous Orbit

Inclination

99.2

Latest

Satellite identification and parameters

Extended collection of information and parameters for FENGYUN 1C DEB.

Object identification

Identified? True

Debris? True

Object name: FENGYUN 1C DEB

International designator: 1999-025CKP

Object number (NORAD): 31888

Object ID (CCSDS): 31888

Country: PEOPLES REPUBLIC OF CHINA (PRC)

Current information (Y/N): Y

RCS size: SMALL

Orbital parameters

Period: 100.428 minutes

Inclination: 99.155 deg

SMA: 7156.963 km

Apoapsis: 791.292 km

Periapsis: 766.364 km

RAAN: 269.7513 deg

Eccentricy: 0.0017415

Argument of periapsis: 227.0258 deg

Mean anomaly: 132.9465 deg

Mean motion: 14.33869368 rev/day

Mean motion (dot): 0.00007988 rev/day2

B* drag term: 0.0028784 1/REarth

Two-line elements (TLE)

Creation date: Dec. 10, 2025, 12:16 a.m.

Reference frame: TEME

Reference center: EARTH

Epoch: Dec. 9, 2025, 12:46 p.m. UTC

TLE line 0: 0 FENGYUN 1C DEB

TLE line 1: 1 31888U 99025CKP 25343.53216767 .00007988 00000-0 28784-2 0 9990

TLE line 2: 2 31888 99.1550 269.7513 0017415 227.0258 132.9465 14.33869368955916

Live tracking on map

Real-time ground track for satellite FENGYUN 1C DEB.

In-orbit conjunctions

A list of the most updated potential collisions computed for object FENGYUN 1C DEB.

Target Orbit TCA Probability of collision Miss distance Type
CZ-4B R/B SSO 2025-08-12 17:14:53 0.0001600973 453.0 (m) ROCKET BODY
COSMOS 836 LEO 2024-12-31 02:24:36 0.0001643757 759.0 (m) PAYLOAD

Associated space launch

Chinese polar orbiting meteorological satellite

FENGYUN 1C DEB was lifted into orbit during the mission ‘Long March 4B | Feng Yun 1C’, on board a Long March 4B space rocket.

The launch took place on May 10, 1999, 1:33 a.m. from Launch Complex 7.

For more information about the launch, click the button.

Launch to space Long March 4B | Feng Yun 1C
Long March 4B | Feng Yun 1C

Agency: N/A

Status: Launch Successful

Launch date: May 10, 1999, 1:33 a.m. UTC

Rocket: Long March 4B

Launch pad: Launch Complex 7

Location: Taiyuan Satellite Launch Center, People's Republic of China

...

Latest news about this satellite

There are no fresh news available about this satellite. Check back as we update our databases every day.


Newsletter sign-up

Weekly statistics, charts and insights to help you stay on top of the space industry.